Stations météo

réclame
Mon MeteoGroup
Norrkoping, Suède (2574): Température de l'air & dewpoint: 17.10.2018 12:00:00 - 23.10.2018 12:00:00 (CEST)Norrkoping, Suède (2574): Vitesse du vent & gusts: 17.10.2018 12:00:00 - 23.10.2018 12:00:00 (CEST)Norrkoping, Suède (2574): Direction du vent: 17.10.2018 12:00:00 - 23.10.2018 12:00:00 (CEST)Norrkoping, Suède (2574): reduced air pressure: 17.10.2018 12:00:00 - 23.10.2018 12:00:00 (CEST)Norrkoping, Suède (2574): visibility: 17.10.2018 12:00:00 - 23.10.2018 12:00:00 (CEST)Norrkoping, Suède (2574): Quantités de précipitations: 17.10.2018 12:00:00 - 23.10.2018 12:00:00 (CEST)
Date & Time tt [°C] td [°C] ff [km/h] ff [knt] fx [km/h] fx [knt] dd ppp [hPa] vv [km] rr [mm]
23.10.2018 12:00:00 - - - - - - - - - -
23.10.2018 11:00:00 8,4 5,2 16 8 40 22 NW 989,5 50 0,0
23.10.2018 10:00:00 8,7 6,0 18 10 35 19 WNW 989,3 50 0,0
23.10.2018 09:00:00 8,9 7,0 16 8 40 21 W 989,4 44 0,2
23.10.2018 08:00:00 8,7 7,8 16 8 38 20 W 989,4 3,1 1,4
23.10.2018 07:00:00 8,0 7,1 15 8 32 17 WSW 989,9 41 0,6
23.10.2018 06:00:00 7,1 6,2 12 7 34 19 SW 991,6 12 0,9
23.10.2018 05:00:00 7,0 5,6 16 9 40 21 SSW 994,2 15 0,3
23.10.2018 04:00:00 7,0 4,8 20 11 44 24 SW 997,4 16 0,2
23.10.2018 03:00:00 6,8 4,8 18 10 42 23 SSW 1000,5 13 0,5
23.10.2018 02:00:00 7,3 4,9 16 9 35 19 SW 1003,7 11 0,1
23.10.2018 01:00:00 7,7 3,4 15 8 33 18 SW 1006,3 19 0,0
23.10.2018 00:00:00 7,3 3,2 15 8 29 16 SW 1008,6 22 0,0
22.10.2018 23:00:00 7,2 2,9 14 7 29 16 WSW 1010,4 26 0,0
22.10.2018 22:00:00 7,2 2,9 17 9 31 17 WSW 1012,1 36 0,0
22.10.2018 21:00:00 7,4 2,7 16 9 31 17 WSW 1012,9 38 0,0
22.10.2018 20:00:00 7,9 2,4 16 9 31 17 WSW 1013,9 41 0,0
22.10.2018 19:00:00 8,1 1,5 13 7 32 17 W 1014,4 50 0,0
22.10.2018 18:00:00 8,7 0,9 14 7 34 18 W 1014,8 33 0,0
22.10.2018 17:00:00 9,7 0,6 13 7 40 21 W 1015,0 50 0,0
22.10.2018 16:00:00 10,9 0,0 15 8 44 24 W 1014,9 42 0,0
22.10.2018 15:00:00 11,1 0,2 18 10 41 22 W 1014,7 45 0,0
22.10.2018 14:00:00 11,5 0,6 18 10 43 23 W 1014,5 36 0,0
22.10.2018 13:00:00 11,6 0,1 16 9 44 24 W 1014,6 45 0,0
22.10.2018 12:00:00 11,4 2,4 13 7 41 22 W 1014,5 43 0,0
22.10.2018 11:00:00 10,4 3,9 14 8 39 21 W 1014,3 33 0,0
22.10.2018 10:00:00 9,8 4,6 17 9 39 21 W 1014,0 33 0,0
22.10.2018 09:00:00 9,6 5,2 13 7 31 17 W 1013,9 31 0,0
22.10.2018 08:00:00 8,8 6,2 13 7 31 17 WSW 1013,7 36 0,0
22.10.2018 07:00:00 9,2 6,6 17 9 30 16 WSW 1013,1 44 0,0
22.10.2018 06:00:00 10,1 6,4 13 7 29 16 W 1012,8 50 0,0
22.10.2018 05:00:00 11,4 7,7 13 7 28 15 W 1012,5 45 0,0
22.10.2018 04:00:00 12,5 8,6 15 8 37 20 WSW 1012,2 50 0,0
22.10.2018 03:00:00 13,5 9,0 17 9 43 23 W 1011,7 50 0,0
22.10.2018 02:00:00 14,3 11,3 21 11 41 22 WSW 1011,2 50 0,0
22.10.2018 01:00:00 14,6 11,6 19 10 36 20 WSW 1011,3 21 0,0
22.10.2018 00:00:00 14,2 11,4 19 10 41 22 SW 1011,5 28 0,0
21.10.2018 23:00:00 13,9 11,1 19 11 42 23 SW 1012,2 50 0,0
21.10.2018 22:00:00 13,8 10,8 20 11 36 19 SW 1013,1 50 0,0
21.10.2018 21:00:00 13,6 10,6 16 8 36 20 SW 1013,8 50 0,0
21.10.2018 20:00:00 13,5 10,5 15 8 33 18 SW 1014,6 50 0,0
21.10.2018 19:00:00 13,7 10,3 16 8 42 23 SW 1015,4 50 0,0
21.10.2018 18:00:00 13,7 10,1 14 8 29 16 WSW 1016,2 50 0,0
21.10.2018 17:00:00 13,6 10,2 10 5 30 16 SW 1016,6 50 0,0
21.10.2018 16:00:00 13,9 10,1 12 6 33 18 SW 1017,2 50 0,0
21.10.2018 15:00:00 13,6 10,0 16 9 39 21 WSW 1017,8 50 0,0
21.10.2018 14:00:00 12,7 9,3 16 8 32 18 SW 1018,4 50 0,0
21.10.2018 13:00:00 12,2 8,9 14 8 34 19 WSW 1019,2 49 0,0
21.10.2018 12:00:00 11,4 7,9 16 8 27 15 SW 1019,8 33 0,0
21.10.2018 11:00:00 9,5 6,8 8 5 21 12 SW 1020,6 40 0,0
21.10.2018 10:00:00 8,6 6,4 8 4 21 11 WSW 1021,1 38 0,0
21.10.2018 09:00:00 6,2 5,3 8 4 18 10 SW 1021,2 29 0,0
21.10.2018 08:00:00 4,5 3,9 6 3 14 7 SW 1021,8 29 0,0
21.10.2018 07:00:00 4,4 3,8 6 3 14 7 S 1021,9 49 0,0
21.10.2018 06:00:00 4,2 3,9 7 4 13 7 SSW 1022,2 46 0,0
21.10.2018 05:00:00 3,1 3,0 6 3 10 6 WSW 1022,8 20 0,0
21.10.2018 04:00:00 1,7 1,6 3 2 5 3 S 1022,8 11 0,0
21.10.2018 03:00:00 1,1 0,8 0 0 4 2 N 1023,4 8 0,0
21.10.2018 02:00:00 1,4 1,1 0 0 6 4 N 1023,7 9 0,0
21.10.2018 01:00:00 1,6 1,2 3 2 7 4 SW 1023,7 8 0,0
21.10.2018 00:00:00 1,8 1,4 4 2 6 3 SW 1023,7 18 0,0
20.10.2018 23:00:00 2,5 2,1 3 1 6 3 SSW 1023,8 17 0,0
20.10.2018 22:00:00 2,9 2,3 3 1 5 3 SSW 1023,9 16 0,0
20.10.2018 21:00:00 5,0 3,8 3 2 6 3 WSW 1023,8 41 0,0
20.10.2018 20:00:00 5,3 4,3 3 2 8 4 W 1023,5 50 0,0
20.10.2018 19:00:00 4,9 3,7 0 0 4 2 N 1022,9 44 0,0
20.10.2018 18:00:00 6,9 4,2 2 1 8 4 SSW 1022,8 50 0,0
20.10.2018 17:00:00 10,6 4,7 4 2 9 5 W 1022,3 50 0,0
20.10.2018 16:00:00 12,0 5,8 3 2 10 5 WNW 1021,9 49 0,0
20.10.2018 15:00:00 11,5 5,4 6 4 13 7 W 1022,1 44 0,0
20.10.2018 14:00:00 11,7 5,8 6 4 15 8 W 1022,0 36 0,0
20.10.2018 13:00:00 10,0 6,7 4 2 11 6 W 1021,8 39 0,0
20.10.2018 12:00:00 9,9 7,1 5 3 13 7 WNW 1021,8 35 0,0
20.10.2018 11:00:00 9,2 6,8 5 3 12 7 WNW 1021,6 30 0,0
20.10.2018 10:00:00 7,5 6,1 3 2 6 3 SSW 1021,1 40 0,0
20.10.2018 09:00:00 6,1 5,4 3 2 6 4 WSW 1020,9 36 0,0
20.10.2018 08:00:00 4,9 4,3 4 2 7 4 WSW 1020,8 37 0,0
20.10.2018 07:00:00 4,5 3,6 4 2 8 4 WSW 1020,5 45 0,0
20.10.2018 06:00:00 5,4 3,9 3 2 9 5 SW 1020,2 50 0,0
20.10.2018 05:00:00 5,1 3,6 5 3 9 5 SW 1020,6 50 0,0
20.10.2018 04:00:00 4,6 3,4 3 2 7 4 SW 1020,6 50 0,0
20.10.2018 03:00:00 3,8 3,2 0 0 7 4 N 1020,8 50 0,0
20.10.2018 02:00:00 3,2 2,8 0 0 3 2 N 1021,2 35 0,0
20.10.2018 01:00:00 3,0 2,7 0 0 2 1 N 1021,6 25 0,0
20.10.2018 00:00:00 2,4 2,0 0 0 3 1 N 1021,7 16 0,0
19.10.2018 23:00:00 2,3 1,7 0 0 3 1 N 1021,8 20 0,0
19.10.2018 22:00:00 2,8 2,2 2 1 4 2 S 1022,1 31 0,0
19.10.2018 21:00:00 3,8 2,8 0 0 5 3 N 1022,1 43 0,0
19.10.2018 20:00:00 4,9 3,1 4 2 6 4 SSW 1022,0 50 -
19.10.2018 19:00:00 7,5 3,7 5 3 9 5 SSW 1022,2 50 -
19.10.2018 18:00:00 7,9 3,9 4 2 8 5 SSW 1022,1 50 -
19.10.2018 17:00:00 10,8 4,5 4 2 11 6 SW 1022,1 50 -
19.10.2018 16:00:00 11,5 5,4 6 3 12 6 SW 1022,6 47 -
19.10.2018 15:00:00 11,2 4,6 5 3 13 7 NW 1022,7 50 -
19.10.2018 14:00:00 11,0 5,5 6 3 14 8 WNW 1023,1 42 -
19.10.2018 13:00:00 10,3 6,4 7 4 12 7 WSW 1023,5 33 -
19.10.2018 12:00:00 8,5 6,1 6 3 11 6 W 1023,9 35 -
19.10.2018 11:00:00 6,7 5,5 5 3 12 6 WSW 1024,0 33 -
19.10.2018 10:00:00 4,7 4,3 5 3 11 6 WSW 1023,9 21 0,0
19.10.2018 09:00:00 3,7 3,6 3 1 9 5 WSW 1023,6 13 0,0
19.10.2018 08:00:00 2,5 2,2 3 2 11 6 WSW 1023,4 12 0,0
19.10.2018 07:00:00 2,5 2,2 5 3 11 6 WSW 1023,3 15 0,0
19.10.2018 06:00:00 3,1 2,8 5 3 11 6 SW 1023,1 23 0,0
19.10.2018 05:00:00 2,4 2,0 4 2 9 5 WSW 1023,1 27 0,0
19.10.2018 04:00:00 3,1 2,7 3 2 8 4 SW 1022,7 44 0,0
19.10.2018 03:00:00 3,4 2,5 3 2 7 4 SW 1022,5 50 0,0
19.10.2018 02:00:00 3,6 2,6 3 2 6 3 SW 1022,7 50 0,0
19.10.2018 01:00:00 3,5 2,3 0 0 7 4 N 1022,9 50 0,0
19.10.2018 00:00:00 4,3 2,3 4 2 11 6 WSW 1022,9 50 0,0
18.10.2018 23:00:00 5,2 2,2 5 3 9 5 WSW 1022,5 50 0,0
18.10.2018 22:00:00 5,9 2,2 6 3 11 6 WSW 1022,2 50 0,0
18.10.2018 21:00:00 6,3 2,2 4 2 11 6 WSW 1021,6 50 0,0
18.10.2018 20:00:00 7,3 2,8 6 3 13 7 WSW 1020,9 50 0,0
18.10.2018 19:00:00 8,8 3,2 5 3 12 7 W 1020,5 50 0,0
18.10.2018 18:00:00 10,0 2,6 4 2 19 10 W 1020,0 50 0,0
18.10.2018 17:00:00 12,2 2,9 7 4 20 11 WNW 1019,2 50 0,0
18.10.2018 16:00:00 13,6 3,7 11 6 29 15 WNW 1018,7 50 0,0
18.10.2018 15:00:00 14,2 3,3 11 6 29 16 WNW 1018,1 45 0,0
18.10.2018 14:00:00 14,0 2,2 15 8 27 15 WNW 1017,8 50 0,0
18.10.2018 13:00:00 13,9 5,8 12 7 26 14 W 1017,7 42 0,0
18.10.2018 12:00:00 13,3 8,2 11 6 27 14 W 1017,7 39 0,0
18.10.2018 11:00:00 12,3 8,8 8 5 25 13 W 1017,5 37 0,0
18.10.2018 10:00:00 11,8 9,7 8 4 24 13 WSW 1016,9 20 0,0
18.10.2018 09:00:00 11,9 10,1 6 3 11 6 WSW 1016,7 17 0,1
18.10.2018 08:00:00 12,4 10,3 4 2 13 7 WNW 1016,2 14 0,0
18.10.2018 07:00:00 12,9 11,5 7 4 13 7 WSW 1015,9 5 0,0
18.10.2018 06:00:00 12,8 11,4 7 4 16 9 WSW 1015,9 4,6 0,0
18.10.2018 05:00:00 13,2 11,6 7 4 16 9 SW 1015,9 6 0,0
18.10.2018 04:00:00 13,6 11,5 7 4 16 8 WSW 1016,1 7 0,0
18.10.2018 03:00:00 13,8 11,7 7 4 15 8 WSW 1016,4 9 0,0
18.10.2018 02:00:00 14,1 11,8 7 4 13 7 WSW 1016,9 13 0,0
18.10.2018 01:00:00 14,5 11,8 8 4 17 9 WSW 1017,1 16 0,0
18.10.2018 00:00:00 15,0 11,8 8 4 18 10 SW 1017,0 18 0,0
17.10.2018 23:00:00 15,5 11,5 9 5 17 9 SW 1017,1 28 0,0
17.10.2018 22:00:00 15,8 11,0 7 4 14 8 SW 1017,1 44 0,0
17.10.2018 21:00:00 16,1 11,1 6 3 13 7 SSW 1017,1 44 0,0
17.10.2018 20:00:00 15,9 11,1 7 4 12 7 S 1017,2 50 0,0
17.10.2018 19:00:00 12,9 11,3 0 0 7 4 N 1017,1 10 0,0
17.10.2018 18:00:00 14,7 11,8 0 0 6 3 N 1017,0 13 0,0
17.10.2018 17:00:00 17,1 12,4 0 0 6 3 N 1017,0 18 0,0
17.10.2018 16:00:00 20,1 12,3 4 2 9 5 SSE 1016,9 40 0,0
17.10.2018 15:00:00 20,2 12,2 4 2 11 6 SSW 1017,2 26 0,0
17.10.2018 14:00:00 18,5 12,0 6 3 11 6 SW 1017,4 23 0,0
17.10.2018 13:00:00 18,1 12,8 4 2 12 6 WSW 1017,8 16 0,0
17.10.2018 12:00:00 16,0 11,8 6 4 18 10 WSW 1018,0 14 0,0

tt = Température de l'air
td = dewpoint
ff = Vitesse du vent
fx = gusts
dd = Direction du vent
ppp = reduced air pressure
vv = visibility
rr = Quantités de précipitations

stations d'obs. à proximité